Regional Weather Roundup
Issued by NWS Midland/Odessa, TX

Home | Current Version | Previous Version | Text Only | Print | Product List | Glossary On
Versions: 1 2 3 4 5 6 7 8 9 10 11 12 13 14 15 16 17 18 19 20 21 22 23 24 25 26 27 28 29 30 31 32 33 34 35 36 37 38 39 40 41 42 43 44 45 46 47 48 49 50
000
ASUS44 KMAF 311210
RWRMAF
MIDLAND AREA WEATHER ROUNDUP
NATIONAL WEATHER SERVICE MIDLAND TX
700 AM CDT FRI OCT 31 2014

...IN SOUTHWEST TEXAS AND SOUTHEAST NEW MEXICO...

CITY           SKY/WX    TMP DP  RH WIND       PRES   REMARKS
ALPINE         CLOUDY    58  53  85 E8        30.40R
ANDREWS        FAIR      44  34  68 N6        30.36R
ARTESIA        NOT AVBL
BIG SPRING     CLEAR     53  38  57 NE5       30.35S
CARLSBAD       CLEAR     48  41  76 N6        30.36R
DRYDEN           N/A     67  57  70 NE12      30.23R
FORT STOCKTON  CLOUDY    61  53  75 NE7       30.31R
GUAD PASS      CLEAR     51  34  52 NE32G40   30.37R
HOBBS          NOT AVBL
MARFA          PTCLDY    54  52  94 NE6       30.35R
MIDLAND AIRPK  CLEAR     51  37  59 CALM      30.34R
MIDLAND INTL   CLEAR     49  37  63 N7        30.33R
ODESSA         CLEAR     49  37  63 NE8       30.34R
PECOS          CLOUDY    60  42  51 N7        30.33R
PRESIDIO       FAIR      65  53  63 MISG      30.23R
SEMINOLE       CLEAR     45  33  62 N5        30.37R
SNYDER         CLEAR     50  35  55 NE8       30.35R
WINK           CLEAR     52  38  58 N6        30.32R
$$
...OTHER STATIONS IN TEXAS...

CITY           SKY/WX    TMP DP  RH WIND       PRES   REMARKS
ABILENE        CLEAR     49  38  65 N6        30.33R
AMARILLO       CLEAR     37  30  75 NE8       30.42R WCI  31
AUSTIN         MOCLDY    58  58 100 NW3       30.20R
BROWNSVILLE    CLEAR     68  67  96 NW3       30.08R FOG
CORPUS CHRISTI LGT RAIN  72  69  90 CALM      30.09R
DALLAS FTW     CLEAR     54  41  61 N13       30.24R
DEL RIO        MOCLDY    70  60  70 NE10      30.15R
EL PASO        PTCLDY    58  48  69 CALM      30.29R
HOUSTON INT    CLEAR     59  55  87 NW3       30.13R
LUBBOCK        CLEAR     39  31  72 N7        30.37R WCI  34
SAN ANGELO     CLEAR     58  41  53 NE8       30.30R
SAN ANTONIO    CLOUDY    66  62  87 N12       30.18R
WACO           CLEAR     56  45  66 NW12      30.22R
WICHITA FALLS  NOT AVBL
$$
...OTHER LOCATIONS IN NEW MEXICO...

CITY           SKY/WX    TMP DP  RH WIND       PRES   REMARKS
ALAMAGORDO     NOT AVBL
ALBUQUERQUE    PTCLDY    53  26  35 E20       30.34S
CANNON AFB     CLEAR     39  28  65 NE7       30.38F WCI  34
CLOVIS         CLEAR     37  27  65 NE7       30.42R WCI  32
HOLLOMAN AFB   PTCLDY    46  34  62 NW8       30.29R
ROSWELL        CLEAR     43  34  70 CALM      30.39R
RUIDOSO        MIX PCPN  41  32  70 SE8       30.47S WCI  36
SANTA FE       CLEAR     44  22  41 SE8       30.42R WCI  39
TRUTH OR CONSE CLEAR     45  29  53 NW8       30.30R
TUCUMCARI      CLEAR     39  27  62 N9        30.41R WCI  33
$$



USA.gov is the U.S. government's official web portal to all federal, state and local government web resources and services.